Location: Grand Rapids
(42.9630°N, 85.6680°W)
Time: 01:55:07
(UTC-04:00)

S-56A Canister/Altair - Pass Details

Date: 04 June 2024
Orbit: 637 x 2489 km, 38.9° (Epoch: 21 June)

Event Time Altitude Azimuth Distance (km) Brightness Sun altitude
Rises 03:39:40 0° 230° (SW) 5,853 - -19.1°
Reaches altitude 10° 03:43:25 10° 227° (SW) 4,982 - -18.7°
Exits shadow 03:47:20 22° 220° (SW) 4,129 10.6 -18.4°
Maximum altitude 03:57:38 56° 154° (SSE) 2,813 10.1 -17.4°
Drops below altitude 10° 04:11:00 10° 82° (E) 4,712 12.1 -16.0°
Sets 04:14:25 0° 79° (ENE) 5,528 12.7 -15.6°
